| Date | Temp | Humidity | Rainfall | Dew Point | Wind Direction | Wind Speed | Wind Pressure | Condition | Visibility |
|---|---|---|---|---|---|---|---|---|---|
| 2025-02-21 21:03:08 | 28 | 82 | 25 | 300 | 7.6 | 1011 | Night Thunderstorm | 10 KM | |
| 2025-02-21 19:59:15 | 28 | 79 | 24 | 310 | 7.6 | 1011 | Lightning | 10 KM | |
| 2025-02-21 19:02:02 | 28 | 79 | 24 | 300 | 7.6 | 1010 | Partly Cloudy (Night) | 10 KM | |
| 2025-02-21 18:02:12 | 29 | 74 | 24 | 290 | 13.3 | 1009 | Partly Cloudy (Day) | 10 KM | |
| 2025-02-21 17:01:54 | 30 | 73 | 24 | 300 | 13.3 | 1009 | Cloudy | 15 km | |
| 2025-02-21 16:00:30 | 30 | 74 | 25 | 290 | 9.5 | 1009 | Cloudy | 15 km | |
| 2025-02-21 15:00:01 | 30 | 73 | 25 | 260 | 11.4 | 1009 | Cloudy | 15 km | |
| 2025-02-21 14:00:57 | 30 | 75 | 25 | 280 | 7.6 | 1010 | Cloudy | 10 km | |
| 2025-02-21 13:01:04 | 28 | 79 | 24 | 280 | 9.5 | 1011 | Shower Day | 09 km | |
| 2025-02-21 11:59:27 | 29 | 79 | 0.00 | 25 | 340 | 9.5 | 1012 | Partly Cloudy (Day) | 20 km |
| 2025-02-21 10:59:12 | 29 | 73 | 0.00 | 24 | 030 | 1.9 | 1013 | Partly Cloudy (Day) | 20 km |
| 2025-02-21 10:00:52 | 28 | 78 | 0.00 | 24 | 330 | 3.8 | 1013 | Partly Cloudy (Day) | 15KM |
| 2025-02-21 09:01:13 | 27 | 85 | 0.00 | 24 | 260 | 1.9 | 1012 | Partly Cloudy (Day) | 15KM |
| 2025-02-21 08:04:18 | 25 | 91 | 0.00 | 24 | 230 | 1.9 | 1011 | Partly Cloudy (Day) | 10KM |
| 2025-02-21 07:05:06 | 24 | 95 | 0.00 | 24 | 250 | 3.8 | 1010 | Partly Cloudy (Day) | 15KM |
| 2025-02-21 06:02:59 | 24 | 96 | 0.00 | 24 | 220 | 1.9 | 1010 | Partly Cloudy (Day) | 10KM |
| 2025-02-21 05:08:54 | 25 | 94 | 0.00 | 24 | 210 | 7.6 | 1010 | Partly Cloudy (Night) | 10KM |
| 2025-02-21 04:05:10 | 25 | 95 | 0.00 | 24 | 210 | 5.7 | 1010 | Partly Cloudy (Night) | 10KM |
| 2025-02-21 04:02:39 | 25 | 95 | 0.00 | 24 | 210 | 5.7 | Partly Cloudy (Night) | 1010 | |
| 2025-02-21 03:01:45 | 25 | 97 | 0.00 | 25 | 170 | 3.8 | 1010 | Partly Cloudy (Night) | 10KM |
| 2025-02-21 02:02:47 | 25 | 97 | 0.0 | 25 | 180 | 3.8 | 1010 | Cloudy | 10KM |
| 2025-02-21 01:04:15 | 26 | 94 | 0.0 | 25 | 060 | 5.7 | 1011 | Rain | 10KM |
| 2025-02-21 00:01:05 | 25 | 95 | 0.0 | 25 | 170 | 7.6 | 1012 | Rain | 08KM |
| 2025-02-20 23:01:30 | 26 | 95 | 0.0 | 25 | 130 | 7.6 | 1012 | Rain | 09KM |
| 2025-02-20 22:00:09 | 26 | 93 | 0.0 | 25 | 090 | 5.7 | 1012 | Lightning | 10KM |